User: anonymous   Login
Location: *
(48.8489°N, 2.3218°E)
Time: 10:33:48
(UTC+00:00)
Language:

ASTEX 1 - Orbit

View from above orbital plane
View from above orbital plane
View from above satellite
View from above satellite

Ground track
Ground track

The orbit data is extracted from the following two-line orbital elements,

1  5560U 71089A   19295.90635867 +.00000079 +00000-0 +21386-4 0  9991
2  5560 092.7104 120.1177 0016819 019.8261 340.3594 14.48035808525003
Epoch (UTC): 22 October 2019 21:45:09
Eccentricity: 0.0016819
inclination: 92.7104°
perigee height: 720 km
apogee height: 744 km
right ascension of ascending node: 120.1177°
argument of perigee: 19.8261°
revolutions per day: 14.48035808
mean anomaly at epoch: 340.3594°
orbit number at epoch: 52500

The dashed part of the orbit path shows where the satellite is in the earth's shadow,  

DLR